Weather History for Novato, CA

Change the Weather History Date:

Wednesday, October 30, 2013

  Actual Average (KAPC) Record (KAPC)
Temperature  
Mean Temperature 54 °F 56 °F  
Max Temperature 66 °F 70 °F 78 °F (2011)
Min Temperature 41 °F 41 °F 34 °F (2003)
Degree Days  
Heating Degree Days 12    
Month to date heating degree days  
Since 1 July heating degree days  
Cooling Degree Days 0    
Month to date cooling degree days  
Year to date cooling degree days  
Growing Degree Days 4 (Base 50)    
Moisture  
Dew Point 44 °F    
Average Humidity 82    
Maximum Humidity 100    
Minimum Humidity 48    
Precipitation  
Precipitation 0.00 in - 1.41 in (1945)
Month to date precipitation  
Year to date precipitation  
Since 1 July precipitation  
Sea Level Pressure  
Sea Level Pressure 30.12 in    
Wind  
Wind Speed 1 mph (NNE)    
Max Wind Speed 8 mph    
Max Gust Speed -    
Visibility 7 miles    
Events Fog    
T = Trace of Precipitation, MM = Missing Value Source: NWS Daily Summary

Daily Weather History Graph

Daily Weather History Graph

Search for Another Location

Airport:

Trip Planner

Search our weather history database for the weather conditions in past years. The results will help you decide how hot, cold, wet, or windy it might be!

Date:

Astronomy

Oct. 30, 2013 Rise Set
Actual Time 7:34 AM PDT 6:12 PM PDT
Civil Twilight 7:07 AM PDT 6:39 PM PDT
Nautical Twilight 6:36 AM PDT 7:11 PM PDT
Astronomical Twilight 6:05 AM PDT 7:41 PM PDT
Moon 3:32 AM PDT (10/30) 3:58 PM PDT (10/30)
Length of Visible Light 11h 32m
Length of Day
10h 38m
Waning Crescent, 16% of the Moon is Illuminated
Oct 30
Waning Crescent
Nov 3
New
Nov 9
First Quarter
Nov 17
Full
Nov 25
Last Quarter

Hourly Weather History & Observations

Time (PDT) Temp. Windchill Dew Point Humidity Pressure Visibility Wind Dir Wind Speed Gust Speed Precip Events Conditions
12:15 AM 44.6 °F - 44.6 °F 100% 30.07 in 10.0 mi Calm Calm - N/A   Clear
12:35 AM 44.6 °F - 44.6 °F 100% 30.07 in 10.0 mi Calm Calm - N/A   Clear
12:55 AM 44.6 °F - 44.6 °F 100% 30.07 in 10.0 mi Calm Calm - N/A   Scattered Clouds
1:15 AM 41.0 °F 39.0 °F 41.0 °F 100% 30.08 in 10.0 mi North 3.5 mph - N/A   Mostly Cloudy
1:35 AM 44.6 °F - 44.6 °F 100% 30.08 in 0.2 mi Calm Calm - N/A Fog Fog
1:55 AM 44.6 °F - 44.6 °F 100% 30.08 in 1.0 mi Calm Calm - N/A   Overcast
2:15 AM 44.6 °F - 44.6 °F 100% 30.08 in 0.2 mi Calm Calm - N/A Fog Fog
2:35 AM 44.6 °F - 44.6 °F 100% 30.08 in 2.0 mi Calm Calm - N/A   Overcast
2:55 AM 44.6 °F 43.1 °F 44.6 °F 100% 30.08 in 0.2 mi NNW 3.5 mph - N/A Fog Fog
3:15 AM 44.6 °F - 44.6 °F 100% 30.08 in 0.2 mi Calm Calm - N/A Fog Fog
3:35 AM 44.6 °F - 44.6 °F 100% 30.08 in 0.2 mi Calm Calm - N/A Fog Fog
3:55 AM 44.6 °F - 44.6 °F 100% 30.08 in - Calm Calm - N/A   Overcast
4:15 AM 44.6 °F - 44.6 °F 100% 30.08 in - Calm Calm - N/A   Overcast
4:35 AM 42.8 °F - 42.8 °F 100% 30.08 in 0.2 mi Calm Calm - N/A Fog Fog
4:55 AM 41.0 °F - 41.0 °F 100% 30.09 in 0.2 mi Calm Calm - N/A Fog Fog
5:15 AM 42.8 °F - 42.8 °F 100% 30.10 in - Calm Calm - N/A   Overcast
5:35 AM 42.8 °F - 42.8 °F 100% 30.10 in - Calm Calm - N/A   Overcast
5:55 AM 42.8 °F - 42.8 °F 100% 30.11 in - Calm Calm - N/A   Overcast
6:15 AM 42.8 °F - 42.8 °F 100% 30.11 in - Calm Calm - N/A   Overcast
6:35 AM 41.0 °F 39.0 °F 41.0 °F 100% 30.12 in 0.2 mi North 3.5 mph - N/A Fog Fog
6:55 AM 41.0 °F 39.0 °F 41.0 °F 100% 30.11 in 0.2 mi North 3.5 mph - N/A Fog Fog
7:15 AM 41.0 °F - 41.0 °F 100% 30.12 in 0.2 mi Calm Calm - N/A Fog Fog
7:35 AM 41.0 °F 39.0 °F 41.0 °F 100% 30.13 in 0.2 mi NNW 3.5 mph - N/A Fog Fog
7:55 AM 41.0 °F - 41.0 °F 100% 30.13 in 0.2 mi Calm Calm - N/A Fog Fog
8:15 AM 41.0 °F - 41.0 °F 100% 30.14 in 0.2 mi Calm Calm - N/A Fog Fog
8:35 AM 41.0 °F - 41.0 °F 100% 30.15 in 0.2 mi Calm Calm - N/A Fog Fog
8:55 AM 41.0 °F 39.0 °F 41.0 °F 100% 30.16 in 0.2 mi North 3.5 mph - N/A Fog Fog
9:15 AM 42.8 °F 41.1 °F 42.8 °F 100% 30.17 in 0.2 mi North 3.5 mph - N/A Fog Fog
9:35 AM 44.6 °F - 44.6 °F 100% 30.17 in 2.0 mi Calm Calm - N/A   Overcast
9:55 AM 46.4 °F - 46.4 °F 100% 30.17 in 7.0 mi Calm Calm - N/A   Mostly Cloudy
10:15 AM 48.2 °F - 48.2 °F 100% 30.17 in 10.0 mi Calm Calm - N/A   Scattered Clouds
10:35 AM 48.2 °F - 48.2 °F 100% 30.17 in 10.0 mi Calm Calm - N/A   Clear
10:55 AM 50.0 °F - 50.0 °F 100% 30.17 in 10.0 mi Calm Calm - N/A   Clear
11:15 AM 55.4 °F - 48.2 °F 77% 30.17 in 10.0 mi Calm Calm - N/A   Clear
11:35 AM 57.2 °F - 48.2 °F 72% 30.17 in 10.0 mi Calm Calm - N/A   Clear
11:55 AM 57.2 °F - 48.2 °F 72% 30.17 in 10.0 mi Calm Calm - N/A   Clear
12:15 PM 60.8 °F - 46.4 °F 59% 30.16 in 10.0 mi Calm Calm - N/A   Clear
12:35 PM 60.8 °F - 46.4 °F 59% 30.15 in 10.0 mi Calm Calm - N/A   Clear
12:55 PM 62.6 °F - 46.4 °F 55% 30.14 in - Calm Calm - N/A   Clear
1:15 PM 62.6 °F - 48.2 °F 59% 30.14 in - SE 3.5 mph - N/A   Clear
1:35 PM 64.4 °F - 48.2 °F 56% 30.13 in - SE 4.6 mph - N/A   Clear
1:55 PM 64.4 °F - 48.2 °F 56% 30.12 in - ESE 5.8 mph - N/A   Clear
2:15 PM 64.4 °F - 46.4 °F 52% 30.11 in - ESE 5.8 mph - N/A   Clear
2:35 PM 66.2 °F - 46.4 °F 49% 30.10 in 1.2 mi ESE 6.9 mph - N/A   Haze
2:55 PM 66.2 °F - 46.4 °F 49% 30.10 in 10.0 mi SE 4.6 mph - N/A   Clear
3:15 PM 66.2 °F - 46.4 °F 49% 30.10 in 10.0 mi SE 4.6 mph - N/A   Clear
3:35 PM 66.2 °F - 46.4 °F 49% 30.10 in 10.0 mi ESE 3.5 mph - N/A   Clear
3:55 PM 66.2 °F - 46.4 °F 49% 30.09 in 10.0 mi SSE 3.5 mph - N/A   Partly Cloudy
4:15 PM 66.2 °F - 46.4 °F 49% 30.09 in 10.0 mi SSW 5.8 mph - N/A   Partly Cloudy
5:55 PM 62.6 °F - 42.8 °F 48% 30.10 in 10.0 mi ENE 3.5 mph - N/A   Clear
6:15 PM 59.0 °F - 41.0 °F 51% 30.10 in 10.0 mi Calm Calm - N/A   Clear
6:35 PM 55.4 °F - 41.0 °F 58% 30.11 in 10.0 mi North 5.8 mph - N/A   Clear
6:55 PM 53.6 °F - 41.0 °F 62% 30.11 in 10.0 mi North 6.9 mph - N/A   Clear
7:15 PM 53.6 °F - 41.0 °F 62% 30.12 in 10.0 mi North 8.1 mph - N/A   Clear
7:35 PM 51.8 °F - 41.0 °F 67% 30.13 in 10.0 mi NW 5.8 mph - N/A   Clear
7:55 PM 50.0 °F - 41.0 °F 71% 30.13 in 10.0 mi North 5.8 mph - N/A   Clear
8:15 PM 48.2 °F - 39.2 °F 71% 30.13 in 10.0 mi Calm Calm - N/A   Clear
8:35 PM 50.0 °F - 41.0 °F 71% 30.13 in 10.0 mi NNW 4.6 mph - N/A   Clear
8:55 PM 48.2 °F - 41.0 °F 76% 30.13 in 10.0 mi Calm Calm - N/A   Clear
9:15 PM 48.2 °F - 39.2 °F 71% 30.13 in 10.0 mi Calm Calm - N/A   Clear
9:35 PM 44.6 °F 42.2 °F 41.0 °F 87% 30.13 in 10.0 mi NNE 4.6 mph - N/A   Clear
9:55 PM 44.6 °F - 41.0 °F 87% 30.14 in 10.0 mi Calm Calm - N/A   Clear
10:15 PM 46.4 °F - 41.0 °F 81% 30.14 in 10.0 mi Calm Calm - N/A   Clear
10:35 PM 46.4 °F - 41.0 °F 81% 30.14 in 10.0 mi Calm Calm - N/A   Clear
10:55 PM 46.4 °F - 41.0 °F 81% 30.14 in 10.0 mi Calm Calm - N/A   Clear
11:15 PM 46.4 °F - 41.0 °F 81% 30.14 in 10.0 mi Calm Calm - N/A   Clear
11:35 PM 44.6 °F 43.1 °F 41.0 °F 87% 30.14 in 10.0 mi NNW 3.5 mph - N/A   Clear
11:55 PM 46.4 °F - 41.0 °F 81% 30.14 in 10.0 mi Calm Calm - N/A   Clear